Weather History for KAST - February, 2013

Change the Weather History Date:

Sunday, February 24, 2013

  Actual Average Record
Temperature  
Mean Temperature 44 °F 45 °F  
Max Temperature 49 °F 52 °F 64 °F (1970)
Min Temperature 39 °F 37 °F 21 °F (1935)
Degree Days  
Heating Degree Days 21 20  
Month to date heating degree days 489 500  
Since 1 July heating degree days 3299 3265  
Cooling Degree Days 0 0  
Month to date cooling degree days 0 0  
Year to date cooling degree days 0 0  
Moisture  
Dew Point 37 °F    
Average Humidity 71    
Maximum Humidity 92    
Minimum Humidity 50    
Precipitation  
Precipitation 0.15 in 0.25 in 2.46 in (1961)
Month to date precipitation 4.23 6.18  
Year to date precipitation 13.33 16.38  
Snow  
Snow 0.00 in - - ()
Month to date snowfall 0.0  
Snow Depth 0.00 in    
Sea Level Pressure  
Sea Level Pressure 30.24 in    
Wind  
Wind Speed 8 mph (South)    
Max Wind Speed 23 mph    
Max Gust Speed 31 mph    
Visibility 10 miles    
Events Rain    
T = Trace of Precipitation, MM = Missing Value Source: NWS Daily Summary

Daily Weather History Graph

Daily Weather History Graph

Search for Another Location

Airport or City:

Trip Planner

Search our weather history database for the weather conditions in past years. The results will help you decide how hot, cold, wet, or windy it might be!

Date:

Astronomy

Feb. 24, 2013 Rise Set
Actual Time 7:02 AM PST 5:55 PM PST
Civil Twilight 6:32 AM PST 6:25 PM PST
Nautical Twilight 5:57 AM PST 7:00 PM PST
Astronomical Twilight 5:23 AM PST 7:35 PM PST
Moon 5:12 PM PST (2/24) 6:04 AM PST (2/24)
Length of Visible Light 11h 53m
Length of Day
10h 52m
Waxing Gibbous, 99% of the Moon is Illuminated
Feb 24
Waxing Gibbous
Feb 25
Full
Mar 4
Last Quarter
Mar 11
New
Mar 19
First Quarter

Hourly Weather History & Observations

Time (PST) Temp. Windchill Dew Point Humidity Pressure Visibility Wind Dir Wind Speed Gust Speed Precip Events Conditions
12:55 AM 41.0 °F 38.0 °F 37.0 °F 86% 30.41 in 10.0 mi SSE 4.6 mph - N/A   Overcast
1:55 AM 41.0 °F 39.0 °F 37.0 °F 86% 30.41 in 10.0 mi SE 3.5 mph - N/A   Overcast
2:55 AM 39.9 °F - 37.0 °F 89% 30.40 in 10.0 mi Calm Calm - N/A   Overcast
3:55 AM 39.9 °F - 37.0 °F 89% 30.38 in 10.0 mi Calm Calm - N/A   Overcast
4:55 AM 39.9 °F - 37.9 °F 93% 30.38 in 10.0 mi Calm Calm - 0.00 in   Overcast
5:18 AM 39.2 °F - 37.4 °F 93% 30.38 in 10.0 mi Calm Calm - N/A   Overcast
5:55 AM 39.9 °F - 37.9 °F 93% 30.38 in 10.0 mi Calm Calm - N/A   Overcast
6:55 AM 39.9 °F 36.7 °F 37.0 °F 89% 30.36 in 10.0 mi SE 4.6 mph - N/A   Overcast
7:55 AM 41.0 °F - 37.9 °F 89% 30.36 in 10.0 mi Calm Calm - N/A   Overcast
8:55 AM 44.1 °F 42.5 °F 37.9 °F 79% 30.35 in 10.0 mi SE 3.5 mph - N/A   Overcast
9:55 AM 46.9 °F - 39.0 °F 74% 30.34 in 10.0 mi South 12.7 mph 18.4 mph N/A   Overcast
10:55 AM 48.0 °F - 37.9 °F 68% 30.33 in 10.0 mi SSW 10.4 mph 19.6 mph N/A   Overcast
11:55 AM 48.9 °F - 37.9 °F 66% 30.32 in 10.0 mi South 10.4 mph - N/A   Overcast
12:55 PM 48.9 °F - 37.0 °F 64% 30.29 in 10.0 mi South 16.1 mph 25.3 mph N/A   Overcast
1:23 PM 48.2 °F - 37.4 °F 66% 30.28 in 10.0 mi South 16.1 mph 24.2 mph N/A   Overcast
1:55 PM 48.9 °F - 37.0 °F 64% 30.26 in 10.0 mi South 17.3 mph 23.0 mph N/A   Overcast
2:08 PM 48.2 °F - 37.4 °F 66% 30.25 in 10.0 mi South 13.8 mph 28.8 mph N/A   Overcast
2:25 PM 48.2 °F - 37.4 °F 66% 30.25 in 10.0 mi SSW 18.4 mph 26.5 mph 0.00 in Rain Light Rain
2:55 PM 48.0 °F - 37.0 °F 66% 30.25 in 10.0 mi South 11.5 mph 21.9 mph 0.00 in   Overcast
3:12 PM 48.2 °F - 35.6 °F 62% 30.24 in 10.0 mi SSW 18.4 mph 24.2 mph N/A   Overcast
3:55 PM 48.0 °F - 36.0 °F 63% 30.22 in 10.0 mi SSW 8.1 mph 21.9 mph N/A   Overcast
4:55 PM 48.0 °F - 30.9 °F 52% 30.19 in 10.0 mi South 9.2 mph 21.9 mph N/A   Overcast
5:55 PM 46.9 °F - 33.1 °F 59% 30.15 in 10.0 mi South 8.1 mph 16.1 mph N/A   Overcast
6:55 PM 46.9 °F - 30.0 °F 52% 30.12 in 10.0 mi South 8.1 mph - N/A   Overcast
7:55 PM 46.0 °F 42.5 °F 32.0 °F 58% 30.09 in 10.0 mi South 6.9 mph - N/A   Overcast
8:55 PM 46.9 °F - 30.0 °F 52% 30.06 in 10.0 mi South 11.5 mph - N/A   Overcast
9:28 PM 44.6 °F 38.8 °F 35.6 °F 71% 30.04 in 7.0 mi South 11.5 mph 19.6 mph 0.00 in Rain Light Rain
9:55 PM 44.1 °F 38.1 °F 37.9 °F 79% 30.02 in 10.0 mi SSE 11.5 mph - 0.00 in   Overcast
10:55 PM 45.0 °F 38.5 °F 41.0 °F 86% 29.99 in 9.0 mi South 13.8 mph 25.3 mph 0.02 in Rain Light Rain
11:41 PM 46.4 °F 39.8 °F 42.8 °F 87% 29.97 in 6.0 mi South 16.1 mph 27.6 mph 0.09 in Rain Rain
11:55 PM 46.9 °F - 43.0 °F 86% 29.96 in 5.0 mi South 18.4 mph 28.8 mph 0.12 in Rain Rain